Location: Eastchurch
(51.4000°N, 0.8667°E)
Time: 06:55:11
(UTC+00:00)

ISS - Pass Details

Date: 19 January 2026
Orbit: 413 x 428 km, 51.6° (Epoch: 18 February)

Event Time Altitude Azimuth Distance (km) Brightness Sun altitude
Rises 19:08:03 0° 273° (W) 2,367 1.4 -25.0°
Reaches altitude 10° 19:10:09 10° 274° (W) 1,506 0.1 -25.4°
Enters shadow 19:12:03 31° 276° (W) 769 -1.9 -25.7°
